Weather History for Peachtree City, GA

Change the Weather History Date:

Tuesday, May 14, 2013

  Actual Average Record
Temperature  
Mean Temperature 61 °F 69 °F  
Max Temperature 79 °F 81 °F 89 °F (1998)
Min Temperature 42 °F 56 °F 41 °F (1997)
Degree Days  
Heating Degree Days 4 1  
Month to date heating degree days 58 22  
Since 1 July heating degree days 240 2941  
Cooling Degree Days 0 4  
Month to date cooling degree days 9 44  
Year to date cooling degree days 39 80  
Growing Degree Days 10 (Base 50)    
Moisture  
Dew Point 48 °F    
Average Humidity 67    
Maximum Humidity 96    
Minimum Humidity 38    
Precipitation  
Precipitation 0.00 in 0.10 in 1.00 in (2014)
Month to date precipitation 2.72 1.37  
Year to date precipitation 6.59 19.50  
Snow  
Snow 0.00 in - - ()
Month to date snowfall 0.0  
Since 1 July snowfall 0.0  
Snow Depth 0.00 in    
Sea Level Pressure  
Sea Level Pressure 30.21 in    
Wind  
Wind Speed 2 mph (SW)    
Max Wind Speed 10 mph    
Max Gust Speed 15 mph    
Visibility 9 miles    
Events      
T = Trace of Precipitation, MM = Missing Value Source: NWS Daily Summary

Daily Weather History Graph

Daily Weather History Graph

Search for Another Location

Airport:

Trip Planner

Search our weather history database for the weather conditions in past years. The results will help you decide how hot, cold, wet, or windy it might be!

Date:

Astronomy

May. 14, 2013 Rise Set
Actual Time 6:38 AM EDT 8:30 PM EDT
Civil Twilight 6:11 AM EDT 8:58 PM EDT
Nautical Twilight 5:38 AM EDT 9:31 PM EDT
Astronomical Twilight 5:03 AM EDT 10:06 PM EDT
Moon 10:17 AM EDT (5/14) No Moon Set
Length of Visible Light 14h 46m
Length of Day
13h 52m
Waxing Crescent, 19% of the Moon is Illuminated
May 14
Waxing Crescent
May 18
First Quarter
May 25
Full
May 31
Last Quarter
Jun 8
New

Hourly Weather History & Observations

Time (EDT) Temp. Dew Point Humidity Pressure Visibility Wind Dir Wind Speed Gust Speed Precip Events Conditions
12:53 AM 46.0 °F 43.0 °F 89% 30.23 in 9.0 mi Calm Calm - N/A   Clear
1:53 AM 46.0 °F 43.0 °F 89% 30.22 in 10.0 mi Calm Calm - N/A   Clear
2:53 AM 44.1 °F 42.1 °F 93% 30.22 in 8.0 mi Calm Calm - N/A   Clear
3:53 AM 44.1 °F 41.0 °F 89% 30.21 in 8.0 mi Calm Calm - N/A   Clear
4:53 AM 43.0 °F 41.0 °F 93% 30.22 in 8.0 mi Calm Calm - N/A   Clear
5:53 AM 42.1 °F 39.9 °F 92% 30.23 in 7.0 mi Calm Calm - N/A   Clear
6:53 AM 42.1 °F 39.9 °F 92% 30.25 in 6.0 mi Calm Calm - N/A   Clear
7:53 AM 46.9 °F 44.1 °F 90% 30.25 in 9.0 mi Calm Calm - N/A   Clear
8:53 AM 55.9 °F 48.0 °F 75% 30.27 in 9.0 mi Calm Calm - N/A   Clear
9:53 AM 64.0 °F 43.0 °F 46% 30.27 in 10.0 mi SSE 5.8 mph - N/A   Clear
10:53 AM 66.9 °F 42.1 °F 40% 30.28 in 10.0 mi Variable 3.5 mph - N/A   Clear
11:53 AM 70.0 °F 44.1 °F 39% 30.28 in 10.0 mi Calm Calm - N/A   Clear
12:53 PM 71.1 °F 45.0 °F 39% 30.27 in 9.0 mi Calm Calm - N/A   Clear
1:53 PM 73.9 °F 48.0 °F 40% 30.25 in 10.0 mi Variable 3.5 mph - N/A   Clear
2:53 PM 75.9 °F 48.9 °F 38% 30.22 in 10.0 mi WSW 9.2 mph - N/A   Partly Cloudy
3:53 PM 77.0 °F 51.1 °F 40% 30.19 in 10.0 mi WSW 6.9 mph - N/A   Clear
4:53 PM 78.1 °F 52.0 °F 40% 30.17 in 10.0 mi Variable 5.8 mph - N/A   Partly Cloudy
5:53 PM 78.1 °F 53.1 °F 42% 30.16 in 10.0 mi Variable 6.9 mph - N/A   Partly Cloudy
6:53 PM 78.1 °F 52.0 °F 40% 30.15 in 9.0 mi WSW 6.9 mph - N/A   Clear
7:53 PM 75.0 °F 54.0 °F 48% 30.14 in 9.0 mi Calm Calm - N/A   Clear
8:53 PM 66.0 °F 57.9 °F 75% 30.15 in 8.0 mi Calm Calm - N/A   Clear
9:53 PM 62.1 °F 57.0 °F 84% 30.16 in 9.0 mi Calm Calm - N/A   Clear
10:53 PM 60.1 °F 55.9 °F 86% 30.17 in 7.0 mi Calm Calm - N/A   Clear
11:53 PM 59.0 °F 55.0 °F 87% 30.17 in 7.0 mi Calm Calm - N/A   Clear